Oelwein, IA

1:00 PM CST on December 14, 2019 (GMT -0600)
Oelwein Municipal

Weather History for KOLZ - October, 2019

Change the Weather History Date:

Monday, October 28, 2019

  Actual Average Record
Temperature  
Mean Temperature 34 °F -  
Max Temperature 41 °F 56 °F 77 °F (1950)
Min Temperature 28 °F 34 °F 17 °F (1967)
Degree Days  
Heating Degree Days 30    
Moisture  
Dew Point 27 °F    
Average Humidity 71    
Maximum Humidity 100    
Minimum Humidity 45    
Precipitation  
Precipitation 0.00 in - - ()
Sea Level Pressure  
Sea Level Pressure 30.09 in    
Wind  
Wind Speed 11 mph (NW)    
Max Wind Speed 16 mph    
Max Gust Speed 18 mph    
Visibility 9 miles    
Events      
Averages and records for this station are not official NWS values.
T = Trace of Precipitation, MM = Missing Value Source: NWS Daily Summary

Daily Weather History Graph

Daily Weather History Graph

Search for Another Location

Airport or City:

Astronomy

Oct. 28, 2019 Rise Set
Actual Time 7:36 AM CDT 6:06 PM CDT
Civil Twilight 7:07 AM CDT 6:35 PM CDT
Nautical Twilight 6:34 AM CDT 7:08 PM CDT
Astronomical Twilight 6:01 AM CDT 7:41 PM CDT
Moon 7:58 AM CDT (10/28) 6:51 PM CDT (10/28)
Length of Visible Light 11h 27m
Length of Day
10h 29m
New Moon, 0% of the Moon is Illuminated
Oct 28
New Moon
Nov 4
First Quarter
Nov 12
Full
Nov 19
Last Quarter
Nov 26
New

Hourly Weather History & Observations

Time (CDT) Temp. Windchill Dew Point Humidity Pressure Visibility Wind Dir Wind Speed Gust Speed Precip Events Conditions
12:15 AM 41.0 °F 33.9 °F 35.6 °F 81% 30.05 in 10.0 mi NW 12.7 mph 18.4 mph N/A   Overcast
12:35 AM 39.2 °F 31.2 °F 37.4 °F 93% 30.06 in 10.0 mi NW 13.8 mph - N/A   Overcast
12:55 AM 39.2 °F 31.2 °F 37.4 °F 93% 30.06 in 10.0 mi NW 13.8 mph - N/A   Overcast
1:15 AM 39.2 °F 31.6 °F 35.6 °F 87% 30.06 in 10.0 mi NW 12.7 mph - N/A   Overcast
1:55 AM 37.4 °F 28.9 °F 35.6 °F 93% 30.07 in 10.0 mi NNW 13.8 mph - N/A   Overcast
2:15 AM 37.4 °F 30.3 °F 35.6 °F 93% 30.07 in 10.0 mi NW 10.4 mph - N/A   Overcast
2:35 AM 37.4 °F 29.3 °F 33.8 °F 87% 30.07 in 10.0 mi NW 12.7 mph - N/A   Overcast
2:55 AM 37.4 °F 28.9 °F 33.8 °F 87% 30.07 in 10.0 mi NW 13.8 mph - N/A   Overcast
3:15 AM 37.4 °F 29.8 °F 33.8 °F 87% 30.08 in 10.0 mi NW 11.5 mph - N/A   Overcast
3:35 AM 37.4 °F 28.2 °F 32.0 °F 81% 30.08 in 10.0 mi NW 16.1 mph - N/A   Overcast
3:55 AM 35.6 °F 26.2 °F 32.0 °F 87% 30.08 in 10.0 mi NW 15.0 mph - N/A   Overcast
4:15 AM 35.6 °F 27.1 °F 32.0 °F 87% 30.07 in 10.0 mi NW 12.7 mph - N/A   Overcast
4:35 AM 35.6 °F 26.2 °F 30.2 °F 81% 30.08 in 10.0 mi NW 15.0 mph - N/A   Overcast
4:55 AM 35.6 °F 26.6 °F 30.2 °F 81% 30.08 in 10.0 mi NW 13.8 mph - N/A   Overcast
5:15 AM 35.6 °F 26.2 °F 28.4 °F 75% 30.09 in 10.0 mi NW 15.0 mph - N/A   Overcast
5:35 AM 35.6 °F 25.9 °F 28.4 °F 75% 30.09 in 10.0 mi NW 16.1 mph - N/A   Overcast
5:55 AM 35.6 °F 27.1 °F 28.4 °F 75% 30.09 in 10.0 mi NW 12.7 mph - N/A   Overcast
6:15 AM 33.8 °F 24.3 °F 28.4 °F 81% 30.10 in 10.0 mi NW 13.8 mph - N/A   Overcast
6:35 AM 33.8 °F 24.3 °F 28.4 °F 81% 30.10 in 10.0 mi NW 13.8 mph - N/A   Overcast
6:55 AM 33.8 °F 26.4 °F 26.6 °F 75% 30.11 in 10.0 mi NW 9.2 mph 15.0 mph N/A   Overcast
7:15 AM 33.8 °F 25.3 °F 26.6 °F 75% 30.11 in 10.0 mi NW 11.5 mph - N/A   Overcast
7:35 AM 33.8 °F 26.4 °F 26.6 °F 75% 30.11 in 10.0 mi NW 9.2 mph - N/A   Overcast
7:55 AM 33.8 °F 25.3 °F 26.6 °F 75% 30.11 in 10.0 mi NW 11.5 mph - N/A   Overcast
8:15 AM 33.8 °F 25.3 °F 26.6 °F 75% 30.12 in 10.0 mi NW 11.5 mph - N/A   Overcast
8:35 AM 33.8 °F 25.3 °F 24.8 °F 70% 30.13 in 10.0 mi NW 11.5 mph - N/A   Overcast
8:55 AM 33.8 °F 25.3 °F 24.8 °F 70% 30.13 in 10.0 mi NNW 11.5 mph - N/A   Overcast
9:15 AM 33.8 °F 25.3 °F 24.8 °F 70% 30.13 in 10.0 mi NNW 11.5 mph - N/A   Overcast
9:35 AM 33.8 °F 25.8 °F 24.8 °F 70% 30.13 in 10.0 mi NW 10.4 mph - N/A   Overcast
9:55 AM 33.8 °F 27.0 °F 24.8 °F 70% 30.13 in 10.0 mi NNW 8.1 mph - N/A   Overcast
10:15 AM 33.8 °F 26.4 °F 23.0 °F 65% 30.13 in 10.0 mi NNW 9.2 mph - N/A   Overcast
10:35 AM 33.8 °F 24.8 °F 21.2 °F 60% 30.13 in 10.0 mi NW 12.7 mph - N/A   Overcast
10:55 AM 33.8 °F 25.3 °F 21.2 °F 60% 30.14 in 10.0 mi NW 11.5 mph - N/A   Overcast
11:15 AM 35.6 °F 27.5 °F 23.0 °F 60% 30.13 in 10.0 mi NW 11.5 mph - N/A   Overcast
12:35 PM 37.4 °F 30.3 °F 23.0 °F 56% 30.12 in 10.0 mi NW 10.4 mph - N/A   Overcast
12:55 PM 37.4 °F 29.8 °F 21.2 °F 52% 30.12 in 10.0 mi WNW 11.5 mph - N/A   Overcast
1:15 PM 37.4 °F 29.8 °F 23.0 °F 56% 30.11 in 10.0 mi WNW 11.5 mph - N/A   Overcast
1:35 PM 37.4 °F 32.1 °F 23.0 °F 56% 30.09 in 10.0 mi NW 6.9 mph 13.8 mph N/A   Overcast
1:55 PM 39.2 °F 35.9 °F 23.0 °F 52% 30.08 in 10.0 mi NW 4.6 mph - N/A   Scattered Clouds
2:15 PM 39.2 °F 34.2 °F 23.0 °F 52% 30.08 in 10.0 mi WNW 6.9 mph 12.7 mph N/A   Clear
2:35 PM 41.0 °F 35.2 °F 21.2 °F 45% 30.07 in 10.0 mi NW 9.2 mph - N/A   Clear
2:55 PM 41.0 °F 35.8 °F 21.2 °F 45% 30.07 in 10.0 mi WNW 8.1 mph - N/A   Clear
3:15 PM 41.0 °F 35.8 °F 21.2 °F 45% 30.07 in 10.0 mi West 8.1 mph - N/A   Clear
3:35 PM 41.0 °F 34.7 °F 21.2 °F 45% 30.07 in 10.0 mi NNW 10.4 mph - N/A   Clear
3:55 PM 41.0 °F 34.3 °F 23.0 °F 49% 30.07 in 10.0 mi WNW 11.5 mph - N/A   Clear
4:35 PM 39.2 °F 33.0 °F 21.2 °F 49% 30.06 in 10.0 mi NNW 9.2 mph - N/A   Clear
4:55 PM 39.2 °F 34.2 °F 21.2 °F 49% 30.06 in 10.0 mi NW 6.9 mph - N/A   Partly Cloudy
5:15 PM 37.4 °F 32.1 °F 21.2 °F 52% 30.07 in 10.0 mi NW 6.9 mph - N/A   Clear
5:35 PM 37.4 °F 32.1 °F 23.0 °F 56% 30.07 in 10.0 mi NW 6.9 mph - N/A   Clear
5:55 PM 37.4 °F 32.8 °F 24.8 °F 60% 30.07 in 10.0 mi NNW 5.8 mph - N/A   Partly Cloudy
6:15 PM 35.6 °F 31.7 °F 24.8 °F 65% 30.07 in 10.0 mi NW 4.6 mph - N/A   Scattered Clouds
6:35 PM 35.6 °F 32.8 °F 24.8 °F 65% 30.08 in 10.0 mi NW 3.5 mph - N/A   Overcast
6:55 PM 35.6 °F 29.2 °F 26.6 °F 70% 30.09 in 10.0 mi NW 8.1 mph - N/A   Overcast
7:15 PM 35.6 °F 28.6 °F 26.6 °F 70% 30.09 in 10.0 mi NW 9.2 mph - N/A   Overcast
7:35 PM 35.6 °F 27.5 °F 24.8 °F 65% 30.09 in 10.0 mi NW 11.5 mph 17.3 mph N/A   Overcast
7:55 PM 35.6 °F 28.6 °F 24.8 °F 65% 30.07 in 10.0 mi NNW 9.2 mph 16.1 mph N/A   Mostly Cloudy
8:15 PM 35.6 °F 29.2 °F 24.8 °F 65% 30.08 in 10.0 mi North 8.1 mph - N/A   Overcast
8:35 PM 35.6 °F 28.6 °F 23.0 °F 60% 30.08 in 10.0 mi NNW 9.2 mph - N/A   Overcast
8:55 PM 35.6 °F 29.2 °F 24.8 °F 65% 30.09 in 10.0 mi NW 8.1 mph - N/A   Overcast
9:15 PM 33.8 °F 27.7 °F 23.0 °F 65% 30.09 in 6.0 mi NNE 6.9 mph - N/A   Haze
9:35 PM 33.8 °F 25.8 °F 26.6 °F 75% 30.10 in 4.0 mi North 10.4 mph - N/A   Haze
9:55 PM 32.0 °F 24.8 °F 28.4 °F 87% 30.12 in 2.5 mi North 8.1 mph - N/A   Overcast
10:15 PM 30.2 °F 21.3 °F 30.2 °F 100% 30.13 in 0.8 mi NNW 10.4 mph - N/A   Overcast
10:35 PM - - - N/A% 30.13 in 0.8 mi NNW 9.2 mph - N/A   Overcast
10:55 PM 28.4 °F 20.4 °F 28.4 °F 100% 30.14 in 1.0 mi NW 8.1 mph - N/A   Overcast
11:15 PM 28.4 °F 22.2 °F 28.4 °F 100% 30.14 in 1.2 mi NW 5.8 mph - N/A   Mostly Cloudy
11:35 PM 28.4 °F 21.2 °F 28.4 °F 100% 30.14 in 1.2 mi WNW 6.9 mph - N/A   Overcast
11:55 PM 28.4 °F 21.2 °F 28.4 °F 100% 30.15 in 1.5 mi WNW 6.9 mph - N/A   Overcast